Home   Weather   Fairfield   Past weeks
Flag for USA

Past Weather in Fairfield, New York, USA — Yesterday and Last 2 Weeks

Now
25 °F

Sunny.


Feels Like: 15 °F
Forecast: 35 / 10 °F
Wind: 10 mph from Southeast

Location: Griffiss Air Force Base / Rome

Current Time: Dec 8, 2019 at 11:49:36 am

Latest Report: Dec 8, 2019 at 10:53 am


Visibility: 10 mi

Pressure: 30.38 "Hg

Humidity: 75%

Dew Point: 18 °F

Location of FairfieldLocation

Past Weather in Fairfield — Graph

°F

Fairfield Temperature Yesterday

Maximum temperature yesterday: 26 °F (at 11:53 am)
Minimum temperature yesterday: 4 °F (at 11:53 pm)
Average temperature yesterday: 20 °F

High & Low Weather Summary for the Past Weeks

 TemperatureHumidityPressure
High58 °F (Nov 26, 12:53 pm)100% (Nov 24, 2:53 am)30.51 "Hg (Nov 24, 2:53 am)
Low2 °F (Dec 8, 1:53 am)49% (Nov 23, 1:53 pm)29.42 "Hg (Dec 4, 1:23 pm)
Average30 °F89%29.87 "Hg
* Reported Nov 23 9:37 am — Dec 8 9:53 am, Fairfield. Weather by CustomWeather, © 2019

Note: Actual official high and low records may vary slightly from our data, if they occured in-between our weather recording intervals... More about our weather records

Fairfield Weather History for the Previous 24 Hours

Scroll right to see more
 ConditionsComfort  
Time TempWeatherWind HumidityBarometerVisibility
9:53 am
Sun, Dec 8
21 °FSunny.8 mph85%30.42 "Hg10 mi
8:53 am11 °FSunny.5 mph92%30.45 "Hg10 mi
7:53 am4 °FSunny.6 mph96%30.47 "Hg10 mi
6:53 am2 °FClear.3 mph92%30.48 "Hg10 mi
5:53 am4 °FClear.3 mph96%30.49 "Hg10 mi
4:53 am5 °FClear.5 mph91%30.49 "Hg10 mi
3:53 am6 °FClear.3 mph95%30.48 "Hg10 mi
2:53 am5 °FClear.6 mph95%30.49 "Hg10 mi
1:53 am2 °FClear.No wind96%30.51 "Hg10 mi
12:53 am4 °FClear.3 mph96%30.50 "Hg10 mi
11:53 pm
Sat, Dec 7
4 °FClear.No wind96%30.51 "Hg10 mi
10:53 pm5 °FClear.No wind95%30.50 "Hg10 mi
9:53 pm7 °FClear.No wind96%30.50 "Hg10 mi
8:53 pm8 °FClear.No wind95%30.50 "Hg10 mi
7:53 pm12 °FPassing clouds.No wind100%30.50 "Hg10 mi
6:53 pm12 °FClear.No wind100%30.49 "Hg10 mi
5:53 pm19 °FClear.3 mph85%30.47 "Hg10 mi
4:53 pm21 °FClear.5 mph78%30.46 "Hg10 mi
3:53 pm23 °FPassing clouds.10 mph72%30.44 "Hg10 mi
2:53 pm26 °FPassing clouds.13 mph63%30.42 "Hg10 mi
2:18 pm24 °FMostly cloudy.14 mph75%30.41 "Hg10 mi
1:53 pm26 °FMostly cloudy.13 mph71%30.41 "Hg10 mi
12:53 pm25 °FMostly cloudy.7 mph78%30.40 "Hg10 mi
12:23 pm25 °FMostly cloudy.10 mph75%30.39 "Hg9 mi
11:53 am26 °FPartly sunny.12 mph63%30.40 "Hg10 mi
11:13 am25 °FLight snow. Broken clouds.10 mph81%30.38 "Hg9 mi
Weather by CustomWeather, © 2019

See weather overview

Advertising